owner,sensor,date,latitude,longitude,vertical_datum,sea_water_temperature,qcFlag 
SCCF RECON,ioos:station:SCCF:13:1,2016-02-12T19:00:00Z,26.5255,-82.0032,2.33,17.26,2 
SCCF RECON,ioos:station:SCCF:13:1,2016-02-12T20:00:00Z,26.5255,-82.0032,2.33,17.57,2 
SCCF RECON,ioos:station:SCCF:13:1,2016-02-12T21:00:00Z,26.5255,-82.0032,2.33,17.81,2 
SCCF RECON,ioos:station:SCCF:13:1,2016-02-12T22:00:00Z,26.5255,-82.0032,2.33,17.74,2 
SCCF RECON,ioos:station:SCCF:13:1,2016-02-12T23:00:00Z,26.5255,-82.0032,2.33,17.57,2 
SCCF RECON,ioos:station:SCCF:13:1,2016-02-13T00:00:00Z,26.5255,-82.0032,2.33,17.79,2 
SCCF RECON,ioos:station:SCCF:13:1,2016-02-13T01:00:00Z,26.5255,-82.0032,2.33,17.77,2 
SCCF RECON,ioos:station:SCCF:13:1,2016-02-13T02:00:00Z,26.5255,-82.0032,2.33,17.78,2 
SCCF RECON,ioos:station:SCCF:13:1,2016-02-13T03:00:00Z,26.5255,-82.0032,2.33,17.72,2 
SCCF RECON,ioos:station:SCCF:13:1,2016-02-13T04:00:00Z,26.5255,-82.0032,2.33,17.71,2 
SCCF RECON,ioos:station:SCCF:13:1,2016-02-13T05:00:00Z,26.5255,-82.0032,2.33,17.72,2 
SCCF RECON,ioos:station:SCCF:13:1,2016-02-13T06:00:00Z,26.5255,-82.0032,2.33,17.67,2 
SCCF RECON,ioos:station:SCCF:13:1,2016-02-13T07:00:00Z,26.5255,-82.0032,2.33,17.6,2 
SCCF RECON,ioos:station:SCCF:13:1,2016-02-13T08:00:00Z,26.5255,-82.0032,2.33,17.58,2 
SCCF RECON,ioos:station:SCCF:13:1,2016-02-13T09:00:00Z,26.5255,-82.0032,2.33,17.33,2 
SCCF RECON,ioos:station:SCCF:13:1,2016-02-13T10:00:00Z,26.5255,-82.0032,2.33,17.04,2 
SCCF RECON,ioos:station:SCCF:13:1,2016-02-13T11:00:00Z,26.5255,-82.0032,2.33,17.0,2 
SCCF RECON,ioos:station:SCCF:13:1,2016-02-13T12:00:00Z,26.5255,-82.0032,2.33,17.04,2 
SCCF RECON,ioos:station:SCCF:13:1,2016-02-13T13:00:00Z,26.5255,-82.0032,2.33,17.02,2 
SCCF RECON,ioos:station:SCCF:13:1,2016-02-13T14:00:00Z,26.5255,-82.0032,2.33,17.29,2 
SCCF RECON,ioos:station:SCCF:13:1,2016-02-13T15:00:00Z,26.5255,-82.0032,2.33,17.57,2 
SCCF RECON,ioos:station:SCCF:13:1,2016-02-13T16:00:00Z,26.5255,-82.0032,2.33,17.81,2 
SCCF RECON,ioos:station:SCCF:13:1,2016-02-13T17:00:00Z,26.5255,-82.0032,2.33,18.0,2 
SCCF RECON,ioos:station:SCCF:13:1,2016-02-13T18:00:00Z,26.5255,-82.0032,2.33,18.08,2 
SCCF RECON,ioos:station:SCCF:13:1,2016-02-13T19:00:00Z,26.5255,-82.0032,2.33,17.5,2 
SCCF RECON,ioos:station:SCCF:13:1,2016-02-13T20:00:00Z,26.5255,-82.0032,2.33,18.21,2 
SCCF RECON,ioos:station:SCCF:13:1,2016-02-13T21:00:00Z,26.5255,-82.0032,2.33,18.47,2 
SCCF RECON,ioos:station:SCCF:13:1,2016-02-13T22:00:00Z,26.5255,-82.0032,2.33,18.59,2 
SCCF RECON,ioos:station:SCCF:13:1,2016-02-13T23:00:00Z,26.5255,-82.0032,2.33,18.57,2 
SCCF RECON,ioos:station:SCCF:13:1,2016-02-14T00:00:00Z,26.5255,-82.0032,2.33,18.29,2 
SCCF RECON,ioos:station:SCCF:13:1,2016-02-14T01:00:00Z,26.5255,-82.0032,2.33,18.37,2 
SCCF RECON,ioos:station:SCCF:13:1,2016-02-14T02:00:00Z,26.5255,-82.0032,2.33,18.15,2 
SCCF RECON,ioos:station:SCCF:13:1,2016-02-14T03:00:00Z,26.5255,-82.0032,2.33,18.19,2 
SCCF RECON,ioos:station:SCCF:13:1,2016-02-14T04:00:00Z,26.5255,-82.0032,2.33,18.08,2 
SCCF RECON,ioos:station:SCCF:13:1,2016-02-14T05:00:00Z,26.5255,-82.0032,2.33,18.08,2 
SCCF RECON,ioos:station:SCCF:13:1,2016-02-14T06:00:00Z,26.5255,-82.0032,2.33,18.12,2 
SCCF RECON,ioos:station:SCCF:13:1,2016-02-14T07:00:00Z,26.5255,-82.0032,2.33,17.98,2 
SCCF RECON,ioos:station:SCCF:13:1,2016-02-14T08:00:00Z,26.5255,-82.0032,2.33,17.78,2 
SCCF RECON,ioos:station:SCCF:13:1,2016-02-14T09:00:00Z,26.5255,-82.0032,2.33,17.61,2 
SCCF RECON,ioos:station:SCCF:13:1,2016-02-14T10:00:00Z,26.5255,-82.0032,2.33,17.5,2 
SCCF RECON,ioos:station:SCCF:13:1,2016-02-14T11:00:00Z,26.5255,-82.0032,2.33,17.91,2 
SCCF RECON,ioos:station:SCCF:13:1,2016-02-14T12:00:00Z,26.5255,-82.0032,2.33,18.02,2 
SCCF RECON,ioos:station:SCCF:13:1,2016-02-14T13:00:00Z,26.5255,-82.0032,2.33,18.01,2 
SCCF RECON,ioos:station:SCCF:13:1,2016-02-14T14:00:00Z,26.5255,-82.0032,2.33,17.87,2 
SCCF RECON,ioos:station:SCCF:13:1,2016-02-14T15:00:00Z,26.5255,-82.0032,2.33,17.45,2 
SCCF RECON,ioos:station:SCCF:13:1,2016-02-14T16:00:00Z,26.5255,-82.0032,2.33,17.62,2 
SCCF RECON,ioos:station:SCCF:13:1,2016-02-14T17:00:00Z,26.5255,-82.0032,2.33,17.75,2 
SCCF RECON,ioos:station:SCCF:13:1,2016-02-14T18:00:00Z,26.5255,-82.0032,2.33,17.64,2 
SCCF RECON,ioos:station:SCCF:13:1,2016-02-14T19:00:00Z,26.5255,-82.0032,2.33,17.69,2 
SCCF RECON,ioos:station:SCCF:13:1,2016-02-14T20:00:00Z,26.5255,-82.0032,2.33,17.9,2 
SCCF RECON,ioos:station:SCCF:13:1,2016-02-14T21:00:00Z,26.5255,-82.0032,2.33,17.92,2 
SCCF RECON,ioos:station:SCCF:13:1,2016-02-14T22:00:00Z,26.5255,-82.0032,2.33,17.9,2 
SCCF RECON,ioos:station:SCCF:13:1,2016-02-14T23:00:00Z,26.5255,-82.0032,2.33,18.16,2 
SCCF RECON,ioos:station:SCCF:13:1,2016-02-15T00:00:00Z,26.5255,-82.0032,2.33,18.16,2 
SCCF RECON,ioos:station:SCCF:13:1,2016-02-15T01:00:00Z,26.5255,-82.0032,2.33,18.19,2 
SCCF RECON,ioos:station:SCCF:13:1,2016-02-15T02:00:00Z,26.5255,-82.0032,2.33,18.19,2 
SCCF RECON,ioos:station:SCCF:13:1,2016-02-15T03:00:00Z,26.5255,-82.0032,2.33,18.07,2 
SCCF RECON,ioos:station:SCCF:13:1,2016-02-15T04:00:00Z,26.5255,-82.0032,2.33,18.01,2 
SCCF RECON,ioos:station:SCCF:13:1,2016-02-15T05:00:00Z,26.5255,-82.0032,2.33,18.13,2 
SCCF RECON,ioos:station:SCCF:13:1,2016-02-15T06:00:00Z,26.5255,-82.0032,2.33,18.1,2 
SCCF RECON,ioos:station:SCCF:13:1,2016-02-15T07:00:00Z,26.5255,-82.0032,2.33,18.11,2 
SCCF RECON,ioos:station:SCCF:13:1,2016-02-15T08:00:00Z,26.5255,-82.0032,2.33,18.07,2 
SCCF RECON,ioos:station:SCCF:13:1,2016-02-15T09:00:00Z,26.5255,-82.0032,2.33,18.01,2 
SCCF RECON,ioos:station:SCCF:13:1,2016-02-15T10:00:00Z,26.5255,-82.0032,2.33,18.01,2 
SCCF RECON,ioos:station:SCCF:13:1,2016-02-15T11:00:00Z,26.5255,-82.0032,2.33,17.95,2 
SCCF RECON,ioos:station:SCCF:13:1,2016-02-15T12:00:00Z,26.5255,-82.0032,2.33,17.89,2 
SCCF RECON,ioos:station:SCCF:13:1,2016-02-15T13:00:00Z,26.5255,-82.0032,2.33,17.73,2 
SCCF RECON,ioos:station:SCCF:13:1,2016-02-15T14:00:00Z,26.5255,-82.0032,2.33,17.5,2 
SCCF RECON,ioos:station:SCCF:13:1,2016-02-15T15:00:00Z,26.5255,-82.0032,2.33,17.42,2 
SCCF RECON,ioos:station:SCCF:13:1,2016-02-15T16:00:00Z,26.5255,-82.0032,2.33,17.48,2 
SCCF RECON,ioos:station:SCCF:13:1,2016-02-15T17:00:00Z,26.5255,-82.0032,2.33,17.55,2 
SCCF RECON,ioos:station:SCCF:13:1,2016-02-15T18:00:00Z,26.5255,-82.0032,2.33,17.43,2 
SCCF RECON,ioos:station:SCCF:13:1,2016-02-15T19:00:00Z,26.5255,-82.0032,2.33,17.51,2 
SCCF RECON,ioos:station:SCCF:13:1,2016-02-15T20:00:00Z,26.5255,-82.0032,2.33,17.64,2 
SCCF RECON,ioos:station:SCCF:13:1,2016-02-15T21:00:00Z,26.5255,-82.0032,2.33,17.83,2 
SCCF RECON,ioos:station:SCCF:13:1,2016-02-15T22:00:00Z,26.5255,-82.0032,2.33,17.95,2 
SCCF RECON,ioos:station:SCCF:13:1,2016-02-15T23:00:00Z,26.5255,-82.0032,2.33,18.04,2 
SCCF RECON,ioos:station:SCCF:13:1,2016-02-16T00:00:00Z,26.5255,-82.0032,2.33,18.03,2 
SCCF RECON,ioos:station:SCCF:13:1,2016-02-16T01:00:00Z,26.5255,-82.0032,2.33,18.08,2 
SCCF RECON,ioos:station:SCCF:13:1,2016-02-16T02:00:00Z,26.5255,-82.0032,2.33,18.09,2 
SCCF RECON,ioos:station:SCCF:13:1,2016-02-16T03:00:00Z,26.5255,-82.0032,2.33,18.09,2 
SCCF RECON,ioos:station:SCCF:13:1,2016-02-16T04:00:00Z,26.5255,-82.0032,2.33,18.08,2 
SCCF RECON,ioos:station:SCCF:13:1,2016-02-16T05:00:00Z,26.5255,-82.0032,2.33,18.25,2 
SCCF RECON,ioos:station:SCCF:13:1,2016-02-16T06:00:00Z,26.5255,-82.0032,2.33,18.39,2 
SCCF RECON,ioos:station:SCCF:13:1,2016-02-16T07:00:00Z,26.5255,-82.0032,2.33,18.41,2 
SCCF RECON,ioos:station:SCCF:13:1,2016-02-16T08:00:00Z,26.5255,-82.0032,2.33,18.46,2 
SCCF RECON,ioos:station:SCCF:13:1,2016-02-16T09:00:00Z,26.5255,-82.0032,2.33,18.44,2 
SCCF RECON,ioos:station:SCCF:13:1,2016-02-16T10:00:00Z,26.5255,-82.0032,2.33,18.43,2 
SCCF RECON,ioos:station:SCCF:13:1,2016-02-16T11:00:00Z,26.5255,-82.0032,2.33,18.3,2 
SCCF RECON,ioos:station:SCCF:13:1,2016-02-16T12:00:00Z,26.5255,-82.0032,2.33,18.26,2 
SCCF RECON,ioos:station:SCCF:13:1,2016-02-16T13:00:00Z,26.5255,-82.0032,2.33,18.28,2 
SCCF RECON,ioos:station:SCCF:13:1,2016-02-16T14:00:00Z,26.5255,-82.0032,2.33,18.3,2 
SCCF RECON,ioos:station:SCCF:13:1,2016-02-16T15:00:00Z,26.5255,-82.0032,2.33,18.25,2 
SCCF RECON,ioos:station:SCCF:13:1,2016-02-16T16:00:00Z,26.5255,-82.0032,2.33,18.22,2 
SCCF RECON,ioos:station:SCCF:13:1,2016-02-16T17:00:00Z,26.5255,-82.0032,2.33,18.33,2 
SCCF RECON,ioos:station:SCCF:13:1,2016-02-16T18:00:00Z,26.5255,-82.0032,2.33,18.55,2 
SCCF RECON,ioos:station:SCCF:13:1,2016-02-16T19:00:00Z,26.5255,-82.0032,2.33,18.64,2 
SCCF RECON,ioos:station:SCCF:13:1,2016-02-16T20:00:00Z,26.5255,-82.0032,2.33,19.44,2 
SCCF RECON,ioos:station:SCCF:13:1,2016-02-16T21:00:00Z,26.5255,-82.0032,2.33,19.29,2 
SCCF RECON,ioos:station:SCCF:13:1,2016-02-16T22:00:00Z,26.5255,-82.0032,2.33,18.59,2 
SCCF RECON,ioos:station:SCCF:13:1,2016-02-16T23:00:00Z,26.5255,-82.0032,2.33,18.38,2 
SCCF RECON,ioos:station:SCCF:13:1,2016-02-17T00:00:00Z,26.5255,-82.0032,2.33,18.47,2 
SCCF RECON,ioos:station:SCCF:13:1,2016-02-17T01:00:00Z,26.5255,-82.0032,2.33,18.38,2 
SCCF RECON,ioos:station:SCCF:13:1,2016-02-17T02:00:00Z,26.5255,-82.0032,2.33,18.36,2 
SCCF RECON,ioos:station:SCCF:13:1,2016-02-17T03:00:00Z,26.5255,-82.0032,2.33,18.42,2 
SCCF RECON,ioos:station:SCCF:13:1,2016-02-17T04:00:00Z,26.5255,-82.0032,2.33,18.72,2 
SCCF RECON,ioos:station:SCCF:13:1,2016-02-17T05:00:00Z,26.5255,-82.0032,2.33,19.36,2 
SCCF RECON,ioos:station:SCCF:13:1,2016-02-17T06:00:00Z,26.5255,-82.0032,2.33,19.36,2 
SCCF RECON,ioos:station:SCCF:13:1,2016-02-17T07:00:00Z,26.5255,-82.0032,2.33,19.2,2 
SCCF RECON,ioos:station:SCCF:13:1,2016-02-17T08:00:00Z,26.5255,-82.0032,2.33,19.28,2 
SCCF RECON,ioos:station:SCCF:13:1,2016-02-17T09:00:00Z,26.5255,-82.0032,2.33,19.27,2 
SCCF RECON,ioos:station:SCCF:13:1,2016-02-17T10:00:00Z,26.5255,-82.0032,2.33,19.25,2 
SCCF RECON,ioos:station:SCCF:13:1,2016-02-17T11:00:00Z,26.5255,-82.0032,2.33,19.25,2 
SCCF RECON,ioos:station:SCCF:13:1,2016-02-17T12:00:00Z,26.5255,-82.0032,2.33,19.27,2 
SCCF RECON,ioos:station:SCCF:13:1,2016-02-17T13:00:00Z,26.5255,-82.0032,2.33,19.27,2 
SCCF RECON,ioos:station:SCCF:13:1,2016-02-17T14:00:00Z,26.5255,-82.0032,2.33,19.05,2 
SCCF RECON,ioos:station:SCCF:13:1,2016-02-17T15:00:00Z,26.5255,-82.0032,2.33,18.91,2 
SCCF RECON,ioos:station:SCCF:13:1,2016-02-17T16:00:00Z,26.5255,-82.0032,2.33,18.77,2 
SCCF RECON,ioos:station:SCCF:13:1,2016-02-17T17:00:00Z,26.5255,-82.0032,2.33,18.62,2 
SCCF RECON,ioos:station:SCCF:13:1,2016-02-17T18:00:00Z,26.5255,-82.0032,2.33,18.67,2 
SCCF RECON,ioos:station:SCCF:13:1,2016-02-17T19:00:00Z,26.5255,-82.0032,2.33,19.36,2 
SCCF RECON,ioos:station:SCCF:13:1,2016-02-17T20:00:00Z,26.5255,-82.0032,2.33,20.44,2 
SCCF RECON,ioos:station:SCCF:13:1,2016-02-17T21:00:00Z,26.5255,-82.0032,2.33,20.58,2 
SCCF RECON,ioos:station:SCCF:13:1,2016-02-17T22:00:00Z,26.5255,-82.0032,2.33,20.3,2 
SCCF RECON,ioos:station:SCCF:13:1,2016-02-17T23:00:00Z,26.5255,-82.0032,2.33,19.35,2 
SCCF RECON,ioos:station:SCCF:13:1,2016-02-18T00:00:00Z,26.5255,-82.0032,2.33,19.03,2 
SCCF RECON,ioos:station:SCCF:13:1,2016-02-18T01:00:00Z,26.5255,-82.0032,2.33,18.99,2 
SCCF RECON,ioos:station:SCCF:13:1,2016-02-18T02:00:00Z,26.5255,-82.0032,2.33,18.86,2 
SCCF RECON,ioos:station:SCCF:13:1,2016-02-18T03:00:00Z,26.5255,-82.0032,2.33,18.82,2 
SCCF RECON,ioos:station:SCCF:13:1,2016-02-18T04:00:00Z,26.5255,-82.0032,2.33,18.82,2 
SCCF RECON,ioos:station:SCCF:13:1,2016-02-18T05:00:00Z,26.5255,-82.0032,2.33,19.31,2 
SCCF RECON,ioos:station:SCCF:13:1,2016-02-18T06:00:00Z,26.5255,-82.0032,2.33,19.72,2 
SCCF RECON,ioos:station:SCCF:13:1,2016-02-18T07:00:00Z,26.5255,-82.0032,2.33,19.7,2 
SCCF RECON,ioos:station:SCCF:13:1,2016-02-18T08:00:00Z,26.5255,-82.0032,2.33,19.58,2 
SCCF RECON,ioos:station:SCCF:13:1,2016-02-18T09:00:00Z,26.5255,-82.0032,2.33,19.45,2 
SCCF RECON,ioos:station:SCCF:13:1,2016-02-18T10:00:00Z,26.5255,-82.0032,2.33,19.41,2 
SCCF RECON,ioos:station:SCCF:13:1,2016-02-18T11:00:00Z,26.5255,-82.0032,2.33,19.38,2 
SCCF RECON,ioos:station:SCCF:13:1,2016-02-18T12:00:00Z,26.5255,-82.0032,2.33,19.32,2 
SCCF RECON,ioos:station:SCCF:13:1,2016-02-18T13:00:00Z,26.5255,-82.0032,2.33,19.33,2 
SCCF RECON,ioos:station:SCCF:13:1,2016-02-18T14:00:00Z,26.5255,-82.0032,2.33,19.38,2 
SCCF RECON,ioos:station:SCCF:13:1,2016-02-18T15:00:00Z,26.5255,-82.0032,2.33,19.44,2 
SCCF RECON,ioos:station:SCCF:13:1,2016-02-18T16:00:00Z,26.5255,-82.0032,2.33,19.14,2 
SCCF RECON,ioos:station:SCCF:13:1,2016-02-18T17:00:00Z,26.5255,-82.0032,2.33,18.95,2 
SCCF RECON,ioos:station:SCCF:13:1,2016-02-18T18:00:00Z,26.5255,-82.0032,2.33,19.34,2 
SCCF RECON,ioos:station:SCCF:13:1,2016-02-18T19:00:00Z,26.5255,-82.0032,2.33,18.98,2 
SCCF RECON,ioos:station:SCCF:13:1,2016-02-18T20:00:00Z,26.5255,-82.0032,2.33,19.21,2 
SCCF RECON,ioos:station:SCCF:13:1,2016-02-18T21:00:00Z,26.5255,-82.0032,2.33,20.15,2 
SCCF RECON,ioos:station:SCCF:13:1,2016-02-18T22:00:00Z,26.5255,-82.0032,2.33,20.15,2 
SCCF RECON,ioos:station:SCCF:13:1,2016-02-18T23:00:00Z,26.5255,-82.0032,2.33,19.18,2 
SCCF RECON,ioos:station:SCCF:13:1,2016-02-19T00:00:00Z,26.5255,-82.0032,2.33,19.25,2 
SCCF RECON,ioos:station:SCCF:13:1,2016-02-19T01:00:00Z,26.5255,-82.0032,2.33,19.14,2 
SCCF RECON,ioos:station:SCCF:13:1,2016-02-19T02:00:00Z,26.5255,-82.0032,2.33,18.57,2 
SCCF RECON,ioos:station:SCCF:13:1,2016-02-19T03:00:00Z,26.5255,-82.0032,2.33,18.52,2 
SCCF RECON,ioos:station:SCCF:13:1,2016-02-19T04:00:00Z,26.5255,-82.0032,2.33,18.45,2 
SCCF RECON,ioos:station:SCCF:13:1,2016-02-19T05:00:00Z,26.5255,-82.0032,2.33,18.43,2 
SCCF RECON,ioos:station:SCCF:13:1,2016-02-19T06:00:00Z,26.5255,-82.0032,2.33,18.46,2 
SCCF RECON,ioos:station:SCCF:13:1,2016-02-19T07:00:00Z,26.5255,-82.0032,2.33,19.01,2 
SCCF RECON,ioos:station:SCCF:13:1,2016-02-19T08:00:00Z,26.5255,-82.0032,2.33,19.31,2 
SCCF RECON,ioos:station:SCCF:13:1,2016-02-19T09:00:00Z,26.5255,-82.0032,2.33,19.26,2 
SCCF RECON,ioos:station:SCCF:13:1,2016-02-19T10:00:00Z,26.5255,-82.0032,2.33,19.28,2 
SCCF RECON,ioos:station:SCCF:13:1,2016-02-19T11:00:00Z,26.5255,-82.0032,2.33,19.27,2 
SCCF RECON,ioos:station:SCCF:13:1,2016-02-19T12:00:00Z,26.5255,-82.0032,2.33,19.29,2 
SCCF RECON,ioos:station:SCCF:13:1,2016-02-19T13:00:00Z,26.5255,-82.0032,2.33,19.2,2 
SCCF RECON,ioos:station:SCCF:13:1,2016-02-19T14:00:00Z,26.5255,-82.0032,2.33,19.19,2 
SCCF RECON,ioos:station:SCCF:13:1,2016-02-19T15:00:00Z,26.5255,-82.0032,2.33,19.03,2 
SCCF RECON,ioos:station:SCCF:13:1,2016-02-19T16:00:00Z,26.5255,-82.0032,2.33,18.84,2 
SCCF RECON,ioos:station:SCCF:13:1,2016-02-19T17:00:00Z,26.5255,-82.0032,2.33,18.44,2 
SCCF RECON,ioos:station:SCCF:13:1,2016-02-19T18:00:00Z,26.5255,-82.0032,2.33,18.78,2 
SCCF RECON,ioos:station:SCCF:13:1,2016-02-19T19:00:00Z,26.5255,-82.0032,2.33,18.82,2 
SCCF RECON,ioos:station:SCCF:13:1,2016-02-19T20:00:00Z,26.5255,-82.0032,2.33,18.78,2 
SCCF RECON,ioos:station:SCCF:13:1,2016-02-19T21:00:00Z,26.5255,-82.0032,2.33,19.17,2 
SCCF RECON,ioos:station:SCCF:13:1,2016-02-19T22:00:00Z,26.5255,-82.0032,2.33,19.36,2 
SCCF RECON,ioos:station:SCCF:13:1,2016-02-19T23:00:00Z,26.5255,-82.0032,2.33,19.13,2 
SCCF RECON,ioos:station:SCCF:13:1,2016-02-20T00:00:00Z,26.5255,-82.0032,2.33,18.86,2 
SCCF RECON,ioos:station:SCCF:13:1,2016-02-20T01:00:00Z,26.5255,-82.0032,2.33,19.18,2 
SCCF RECON,ioos:station:SCCF:13:1,2016-02-20T02:00:00Z,26.5255,-82.0032,2.33,18.77,2 
SCCF RECON,ioos:station:SCCF:13:1,2016-02-20T03:00:00Z,26.5255,-82.0032,2.33,18.65,2 
SCCF RECON,ioos:station:SCCF:13:1,2016-02-20T04:00:00Z,26.5255,-82.0032,2.33,18.6,2 
SCCF RECON,ioos:station:SCCF:13:1,2016-02-20T05:00:00Z,26.5255,-82.0032,2.33,18.53,2 
SCCF RECON,ioos:station:SCCF:13:1,2016-02-20T06:00:00Z,26.5255,-82.0032,2.33,18.49,2 
SCCF RECON,ioos:station:SCCF:13:1,2016-02-20T07:00:00Z,26.5255,-82.0032,2.33,18.49,2 
SCCF RECON,ioos:station:SCCF:13:1,2016-02-20T08:00:00Z,26.5255,-82.0032,2.33,18.66,2 
SCCF RECON,ioos:station:SCCF:13:1,2016-02-20T09:00:00Z,26.5255,-82.0032,2.33,18.78,2 
SCCF RECON,ioos:station:SCCF:13:1,2016-02-20T10:00:00Z,26.5255,-82.0032,2.33,18.78,2 
SCCF RECON,ioos:station:SCCF:13:1,2016-02-20T11:00:00Z,26.5255,-82.0032,2.33,18.89,2 
SCCF RECON,ioos:station:SCCF:13:1,2016-02-20T12:00:00Z,26.5255,-82.0032,2.33,19.01,2 
SCCF RECON,ioos:station:SCCF:13:1,2016-02-20T13:00:00Z,26.5255,-82.0032,2.33,18.99,2 
SCCF RECON,ioos:station:SCCF:13:1,2016-02-20T14:00:00Z,26.5255,-82.0032,2.33,19.02,2 
SCCF RECON,ioos:station:SCCF:13:1,2016-02-20T15:00:00Z,26.5255,-82.0032,2.33,18.79,2 
SCCF RECON,ioos:station:SCCF:13:1,2016-02-20T16:00:00Z,26.5255,-82.0032,2.33,18.7,2 
SCCF RECON,ioos:station:SCCF:13:1,2016-02-20T17:00:00Z,26.5255,-82.0032,2.33,18.53,2 
SCCF RECON,ioos:station:SCCF:13:1,2016-02-20T18:00:00Z,26.5255,-82.0032,2.33,18.93,2 
SCCF RECON,ioos:station:SCCF:13:1,2016-02-20T19:00:00Z,26.5255,-82.0032,2.33,18.99,2 
SCCF RECON,ioos:station:SCCF:13:1,2016-02-20T20:00:00Z,26.5255,-82.0032,2.33,19.06,2 
SCCF RECON,ioos:station:SCCF:13:1,2016-02-20T21:00:00Z,26.5255,-82.0032,2.33,19.29,2 
SCCF RECON,ioos:station:SCCF:13:1,2016-02-20T22:00:00Z,26.5255,-82.0032,2.33,19.5,2 
SCCF RECON,ioos:station:SCCF:13:1,2016-02-20T23:00:00Z,26.5255,-82.0032,2.33,20.04,2 
SCCF RECON,ioos:station:SCCF:13:1,2016-02-21T00:00:00Z,26.5255,-82.0032,2.33,19.96,2 
SCCF RECON,ioos:station:SCCF:13:1,2016-02-21T01:00:00Z,26.5255,-82.0032,2.33,19.26,2 
SCCF RECON,ioos:station:SCCF:13:1,2016-02-21T02:00:00Z,26.5255,-82.0032,2.33,19.34,2 
SCCF RECON,ioos:station:SCCF:13:1,2016-02-21T03:00:00Z,26.5255,-82.0032,2.33,19.17,2 
SCCF RECON,ioos:station:SCCF:13:1,2016-02-21T04:00:00Z,26.5255,-82.0032,2.33,18.84,2 
SCCF RECON,ioos:station:SCCF:13:1,2016-02-21T05:00:00Z,26.5255,-82.0032,2.33,18.85,2 
SCCF RECON,ioos:station:SCCF:13:1,2016-02-21T06:00:00Z,26.5255,-82.0032,2.33,18.73,2 
SCCF RECON,ioos:station:SCCF:13:1,2016-02-21T07:00:00Z,26.5255,-82.0032,2.33,18.75,2 
SCCF RECON,ioos:station:SCCF:13:1,2016-02-21T08:00:00Z,26.5255,-82.0032,2.33,18.81,2 
SCCF RECON,ioos:station:SCCF:13:1,2016-02-21T09:00:00Z,26.5255,-82.0032,2.33,19.03,2 
SCCF RECON,ioos:station:SCCF:13:1,2016-02-21T10:00:00Z,26.5255,-82.0032,2.33,19.09,2 
SCCF RECON,ioos:station:SCCF:13:1,2016-02-21T11:00:00Z,26.5255,-82.0032,2.33,19.16,2 
SCCF RECON,ioos:station:SCCF:13:1,2016-02-21T12:00:00Z,26.5255,-82.0032,2.33,19.26,2 
SCCF RECON,ioos:station:SCCF:13:1,2016-02-21T13:00:00Z,26.5255,-82.0032,2.33,19.27,2 
SCCF RECON,ioos:station:SCCF:13:1,2016-02-21T14:00:00Z,26.5255,-82.0032,2.33,19.31,2 
SCCF RECON,ioos:station:SCCF:13:1,2016-02-21T15:00:00Z,26.5255,-82.0032,2.33,19.43,2 
SCCF RECON,ioos:station:SCCF:13:1,2016-02-21T16:00:00Z,26.5255,-82.0032,2.33,19.24,2 
SCCF RECON,ioos:station:SCCF:13:1,2016-02-21T17:00:00Z,26.5255,-82.0032,2.33,19.52,2 
SCCF RECON,ioos:station:SCCF:13:1,2016-02-21T18:00:00Z,26.5255,-82.0032,2.33,19.44,2 
SCCF RECON,ioos:station:SCCF:13:1,2016-02-21T19:00:00Z,26.5255,-82.0032,2.33,20.13,2 
SCCF RECON,ioos:station:SCCF:13:1,2016-02-21T20:00:00Z,26.5255,-82.0032,2.33,19.6,2 
SCCF RECON,ioos:station:SCCF:13:1,2016-02-21T21:00:00Z,26.5255,-82.0032,2.33,20.25,2 
SCCF RECON,ioos:station:SCCF:13:1,2016-02-21T22:00:00Z,26.5255,-82.0032,2.33,20.43,2 
SCCF RECON,ioos:station:SCCF:13:1,2016-02-21T23:00:00Z,26.5255,-82.0032,2.33,20.37,2 
SCCF RECON,ioos:station:SCCF:13:1,2016-02-22T00:00:00Z,26.5255,-82.0032,2.33,20.26,2 
SCCF RECON,ioos:station:SCCF:13:1,2016-02-22T01:00:00Z,26.5255,-82.0032,2.33,20.1,2 
SCCF RECON,ioos:station:SCCF:13:1,2016-02-22T02:00:00Z,26.5255,-82.0032,2.33,20.14,2 
SCCF RECON,ioos:station:SCCF:13:1,2016-02-22T03:00:00Z,26.5255,-82.0032,2.33,20.16,2 
SCCF RECON,ioos:station:SCCF:13:1,2016-02-22T04:00:00Z,26.5255,-82.0032,2.33,20.09,2 
SCCF RECON,ioos:station:SCCF:13:1,2016-02-22T05:00:00Z,26.5255,-82.0032,2.33,19.75,2 
SCCF RECON,ioos:station:SCCF:13:1,2016-02-22T06:00:00Z,26.5255,-82.0032,2.33,19.56,2 
SCCF RECON,ioos:station:SCCF:13:1,2016-02-22T07:00:00Z,26.5255,-82.0032,2.33,19.5,2 
SCCF RECON,ioos:station:SCCF:13:1,2016-02-22T08:00:00Z,26.5255,-82.0032,2.33,19.49,2 
SCCF RECON,ioos:station:SCCF:13:1,2016-02-22T09:00:00Z,26.5255,-82.0032,2.33,19.55,2 
SCCF RECON,ioos:station:SCCF:13:1,2016-02-22T10:00:00Z,26.5255,-82.0032,2.33,19.67,2 
SCCF RECON,ioos:station:SCCF:13:1,2016-02-22T11:00:00Z,26.5255,-82.0032,2.33,19.67,2 
SCCF RECON,ioos:station:SCCF:13:1,2016-02-22T12:00:00Z,26.5255,-82.0032,2.33,19.78,2 
SCCF RECON,ioos:station:SCCF:13:1,2016-02-22T13:00:00Z,26.5255,-82.0032,2.33,19.8,2 
SCCF RECON,ioos:station:SCCF:13:1,2016-02-22T14:00:00Z,26.5255,-82.0032,2.33,19.78,2 
SCCF RECON,ioos:station:SCCF:13:1,2016-02-22T15:00:00Z,26.5255,-82.0032,2.33,19.89,2 
SCCF RECON,ioos:station:SCCF:13:1,2016-02-22T16:00:00Z,26.5255,-82.0032,2.33,20.02,2 
SCCF RECON,ioos:station:SCCF:13:1,2016-02-22T17:00:00Z,26.5255,-82.0032,2.33,20.36,2 
SCCF RECON,ioos:station:SCCF:13:1,2016-02-22T18:00:00Z,26.5255,-82.0032,2.33,20.5,2 
SCCF RECON,ioos:station:SCCF:13:1,2016-02-22T19:00:00Z,26.5255,-82.0032,2.33,20.81,2 
SCCF RECON,ioos:station:SCCF:13:1,2016-02-22T20:00:00Z,26.5255,-82.0032,2.33,20.98,2 
SCCF RECON,ioos:station:SCCF:13:1,2016-02-22T21:00:00Z,26.5255,-82.0032,2.33,20.91,2 
SCCF RECON,ioos:station:SCCF:13:1,2016-02-22T22:00:00Z,26.5255,-82.0032,2.33,21.14,2 
SCCF RECON,ioos:station:SCCF:13:1,2016-02-22T23:00:00Z,26.5255,-82.0032,2.33,21.22,2 
SCCF RECON,ioos:station:SCCF:13:1,2016-02-23T00:00:00Z,26.5255,-82.0032,2.33,21.29,2 
SCCF RECON,ioos:station:SCCF:13:1,2016-02-23T01:00:00Z,26.5255,-82.0032,2.33,20.93,2 
SCCF RECON,ioos:station:SCCF:13:1,2016-02-23T02:00:00Z,26.5255,-82.0032,2.33,21.01,2 
SCCF RECON,ioos:station:SCCF:13:1,2016-02-23T03:00:00Z,26.5255,-82.0032,2.33,20.98,2 
SCCF RECON,ioos:station:SCCF:13:1,2016-02-23T04:00:00Z,26.5255,-82.0032,2.33,21.14,2 
SCCF RECON,ioos:station:SCCF:13:1,2016-02-23T05:00:00Z,26.5255,-82.0032,2.33,21.0,2 
SCCF RECON,ioos:station:SCCF:13:1,2016-02-23T06:00:00Z,26.5255,-82.0032,2.33,20.41,2 
SCCF RECON,ioos:station:SCCF:13:1,2016-02-23T07:00:00Z,26.5255,-82.0032,2.33,20.26,2 
SCCF RECON,ioos:station:SCCF:13:1,2016-02-23T08:00:00Z,26.5255,-82.0032,2.33,20.24,2 
SCCF RECON,ioos:station:SCCF:13:1,2016-02-23T09:00:00Z,26.5255,-82.0032,2.33,20.24,2 
SCCF RECON,ioos:station:SCCF:13:1,2016-02-23T10:00:00Z,26.5255,-82.0032,2.33,20.51,2 
SCCF RECON,ioos:station:SCCF:13:1,2016-02-23T11:00:00Z,26.5255,-82.0032,2.33,20.7,2 
SCCF RECON,ioos:station:SCCF:13:1,2016-02-23T12:00:00Z,26.5255,-82.0032,2.33,20.73,2 
SCCF RECON,ioos:station:SCCF:13:1,2016-02-23T13:00:00Z,26.5255,-82.0032,2.33,20.8,2 
SCCF RECON,ioos:station:SCCF:13:1,2016-02-23T14:00:00Z,26.5255,-82.0032,2.33,20.83,2 
SCCF RECON,ioos:station:SCCF:13:1,2016-02-23T15:00:00Z,26.5255,-82.0032,2.33,20.91,2 
SCCF RECON,ioos:station:SCCF:13:1,2016-02-23T16:00:00Z,26.5255,-82.0032,2.33,20.88,2 
SCCF RECON,ioos:station:SCCF:13:1,2016-02-23T17:00:00Z,26.5255,-82.0032,2.33,20.92,2 
SCCF RECON,ioos:station:SCCF:13:1,2016-02-23T18:00:00Z,26.5255,-82.0032,2.33,21.35,2 
SCCF RECON,ioos:station:SCCF:13:1,2016-02-23T19:00:00Z,26.5255,-82.0032,2.33,21.37,2 
SCCF RECON,ioos:station:SCCF:13:1,2016-02-23T20:00:00Z,26.5255,-82.0032,2.33,21.34,2 
SCCF RECON,ioos:station:SCCF:13:1,2016-02-23T21:00:00Z,26.5255,-82.0032,2.33,21.8,2 
SCCF RECON,ioos:station:SCCF:13:1,2016-02-23T22:00:00Z,26.5255,-82.0032,2.33,21.42,2 
SCCF RECON,ioos:station:SCCF:13:1,2016-02-23T23:00:00Z,26.5255,-82.0032,2.33,21.75,2 
SCCF RECON,ioos:station:SCCF:13:1,2016-02-24T00:00:00Z,26.5255,-82.0032,2.33,22.02,2 
SCCF RECON,ioos:station:SCCF:13:1,2016-02-24T01:00:00Z,26.5255,-82.0032,2.33,21.8,2 
SCCF RECON,ioos:station:SCCF:13:1,2016-02-24T02:00:00Z,26.5255,-82.0032,2.33,21.91,2 
SCCF RECON,ioos:station:SCCF:13:1,2016-02-24T03:00:00Z,26.5255,-82.0032,2.33,21.92,2 
SCCF RECON,ioos:station:SCCF:13:1,2016-02-24T04:00:00Z,26.5255,-82.0032,2.33,21.69,2 
SCCF RECON,ioos:station:SCCF:13:1,2016-02-24T05:00:00Z,26.5255,-82.0032,2.33,21.61,2 
SCCF RECON,ioos:station:SCCF:13:1,2016-02-24T06:00:00Z,26.5255,-82.0032,2.33,21.3,2 
SCCF RECON,ioos:station:SCCF:13:1,2016-02-24T07:00:00Z,26.5255,-82.0032,2.33,20.99,2 
SCCF RECON,ioos:station:SCCF:13:1,2016-02-24T08:00:00Z,26.5255,-82.0032,2.33,20.9,2 